Flag for Norway Weather past 2 weeks in Fjerdingby, Norway

Now
54 °F

Cool.


Feels Like: 51 °F
Forecast: 49 / 57 °F
Wind: 10 mph from Northeast

Location: Oslo-Blindern

Current Time: Sep 2, 2015 at 4:25:30 AM

Latest Report: Sep 2, 2015 at 3:00 AM


Visibility: N/A

Pressure: 29.72 "Hg

Humidity: 89%

Dew point: 51 °F

Location of FjerdingbyLocation

Historic Weather in Fjerdingby — Graph

°F

Fjerdingby temperature yesterday

Maximum temperature yesterday: 59 °F (at 3:00 AM)
Minimum temperature yesterday: 54 °F (at 9:00 AM)
Average temperature yesterday: 57 °F

Past Weeks' High & Low Weather Summary

 TemperatureHumidityPressure
High77 °F (Aug 23, 5:00 PM)98% (Aug 28, 1:00 AM)30.37 "Hg (Aug 28, 1:00 AM)
Low47 °F (Aug 29, 6:00 AM)33% (Aug 22, 4:00 PM)29.47 "Hg (Aug 27, 5:00 PM)
Average62 °F72%30.02 "Hg
* Reported Aug 18 3:00 AM — Sep 2 3:00 AM, Fjerdingby, Weather by CustomWeather, © 2015

Note: Actual official high and low records may vary slightly from our data, if they occured in-between our weather recording intervals... More about our weather records

Advertising

Fjerdingby weather history for previous 24 hours

 ConditionsComfort  
Time TempWeatherWind HumidityBarometerVisibility
3:00 AM
Wed, Sep 2
54 °FCool.10 mph89%29.72 "HgN/A
2:00 AM54 °FRain. Low clouds.9 mph89%29.73 "Hg3 mi
12:00 AM55 °FCool.9 mph88%29.78 "HgN/A
11:00 PM
Tue, Sep 1
55 °FRain. Overcast.9 mph89%29.80 "Hg4 mi
10:00 PM55 °FCool.9 mph90%29.81 "HgN/A
9:00 PM56 °FCool.8 mph88%29.82 "HgN/A
8:00 PM55 °FRain. Overcast.9 mph89%29.83 "Hg5 mi
7:00 PM56 °FCool.8 mph87%29.83 "HgN/A
6:00 PM56 °FCool.7 mph87%29.84 "HgN/A
5:00 PM57 °FCool.7 mph86%29.84 "HgN/A
4:00 PM56 °FCool.6 mph89%29.86 "HgN/A
3:00 PM56 °FCool.6 mph86%29.86 "HgN/A
2:00 PM58 °FLight rain. Overcast.6 mph79%29.87 "Hg40 mi
1:00 PM57 °FCool.6 mph80%29.88 "HgN/A
12:00 PM57 °FCool.6 mph79%29.89 "HgN/A
11:00 AM56 °FLight rain. Overcast.6 mph85%29.89 "Hg40 mi
10:00 AM55 °FCool.6 mph87%29.89 "HgN/A
9:00 AM54 °FCool.5 mph87%29.90 "HgN/A
8:00 AM56 °FCool.6 mph76%29.89 "HgN/A
7:00 AM57 °FCool.6 mph69%29.88 "HgN/A
6:00 AM58 °FCool.9 mph67%29.88 "HgN/A
4:00 AM58 °FCool.7 mph72%29.90 "HgN/A
Weather by CustomWeather, © 2015

See weather overviewHow to use our weather pages